Miscellaneous Local Product
Issued by NWS North Platte, NE

Home | Current Version | Previous Version | Text Only | Print | Product List | Glossary On
Versions: 1 2 3 4 5 6 7 8 9 10 11 12 13 14 15 16 17 18 19 20 21 22 23 24 25 26 27 28 29 30 31 32 33 34 35 36 37 38 39 40 41 42 43 44 45 46 47 48 49 50
000
AXUS43 KLBF 011810
MISLBF


WESTERN AND NORTH CENTRAL NEBRASKA HOURLY WEATHER ROUNDUP
NATIONAL WEATHER SERVICE NORTH PLATTE NE
100 PM CDT FRI AUG 01 2014

***STATIONS NOT REPORTING VARIABLES SUCH AS SKY/WEATHER OR
PRESSURE ARE PROVIDED BY THE NEBRASKA DEPARTMENT OF
ROADS...RAWS...AND APRS NETWORKS...AND ARE NOT UNDER
NATIONAL WEATHER SERVICE QUALITY CONTROL***

...OBSERVATIONS IN AND NEAR THE EASTERN PANHANDLE OF NEBRASKA...

CITY           SKY/WX    TMP DP  RH WIND       PRES   REMARKS
PINE RIDGE     SUNNY     87  50  27 VRB6      30.14S
CHADRON        MOSUNNY   90  43  19 VRB5      30.12F
ALLIANCE       SUNNY     86  38  18 MISG      30.19S
SIDNEY         SUNNY     87  39  18 VRB6      30.23F
WHITECLAY        N/A     87  48  25 W8          N/A
RUSHVILLE        N/A     95  37  13 SW14        N/A  HX  90
GORDON           N/A     98  52  21 W6          N/A  HX  95
CRESCENT LAKE    N/A     86  47  25 W6          N/A
LISCO            N/A     88  35  14 SE3         N/A
BIG SPRINGS      N/A     83  52  34 CALM        N/A
$$

...OBSERVATIONS IN NORTH CENTRAL NEBRASKA...

CITY           SKY/WX    TMP DP  RH WIND       PRES   REMARKS
VALENTINE      SUNNY     88  52  29 VRB3      30.12F
THEDFORD       SUNNY     87  52  30 N3        30.15F
AINSWORTH      SUNNY     82  52  34 CALM      30.14F
O`NEILL        MOSUNNY   80  56  42 E6        30.14S
ORD            SUNNY     82  56  40 VRB5      30.12F
BROKEN BOW     SUNNY     84  59  42 CALM      30.14S
BROWNLEE         N/A     93  50  22 CALM        N/A  HX  90
SPRINGVIEW       N/A     84  60  43 E6          N/A
DUNNING          N/A     83  56  39 W7          N/A
ROSE             N/A     85  60  42 E3          N/A
NEWPORT          N/A     82  59  45 SE6         N/A
SARGENT          N/A     82  57  42 S3          N/A
COMSTOCK         N/A     87  60  39 E5          N/A
CHAMBERS         N/A     85  57  38 E3          N/A
EWING            N/A     79  60  51 E3          N/A
$$

...OBSERVATIONS IN SOUTHWEST NEBRASKA AND FAR NORTHEAST COLORADO...

CITY           SKY/WX    TMP DP  RH WIND       PRES   REMARKS
WRAY             N/A     87  47  25 SW6       30.19F
HOLYOKE        FAIR      86  46  25 CALM      30.20S
IMPERIAL       SUNNY     88  44  21 N7        30.17F
OGALLALA       SUNNY     84  49  29 W5        30.16F
NORTH PLATTE   SUNNY     86  51  29 S6        30.14F
MCCOOK         SUNNY     86  57  37 SE3       30.14F
LEXINGTON      SUNNY     82  56  39 CALM      30.14F
PAXTON           N/A     84  53  34 CALM        N/A
SUTHERLAND       N/A     91  50  24 SW5         N/A
BRADY            N/A     83  57  41 CALM        N/A
GOTHENBURG       N/A     81  56  41 E5          N/A
CALLAWAY         N/A     82  64  54 SW3         N/A
$$

...SOME WEATHER OBSERVATIONS FROM AROUND THE REGION...

CITY           SKY/WX    TMP DP  RH WIND       PRES   REMARKS
DENVER         PTSUNNY   76  44  32 SE7       30.28F
LARAMIE        SUNNY     70  40  33 SE17      30.38S
CHEYENNE       SUNNY     75  42  30 S8G16     30.32F
SCOTTSBLUFF    SUNNY     85  50  29 N6        30.20F
RAPID CITY     MOSUNNY   86  49  27 E6        30.09F
PIERRE         SUNNY     88  59  37 SE13      30.05S
WINNER         FAIR      86  53  32 S7        30.10S
SIOUX FALLS    MOSUNNY   80  57  45 NW3       30.12S
OMAHA          MOSUNNY   79  63  57 E6        30.10R
GRAND ISLAND   SUNNY     81  60  48 NE9       30.13S
KANSAS CITY    MOSUNNY   82  62  50 SE9       30.08F
WICHITA        MOSUNNY   85  59  41 SW9       30.06F
HAYS           SUNNY     86  52  30 N5        30.11S
LIBERAL        SUNNY     82  54  36 N6        30.18F
GOODLAND       SUNNY     86  49  27 MISG      30.20F
$$



USA.gov is the U.S. government's official web portal to all federal, state and local government web resources and services.